FLOCK 4Q 4

导读

FLOCK 4Q 4是美国于2023年11月11日发射的SuperDove遥感微纳卫星,隶属于Planet公司FLOCK鸽群星座。作为商业对地观测卫星,它属于3U立方体卫星,重量约5kg,运行于近地轨道,配备多光谱成像设备,可提供3米级高分辨率光学遥感影像。该卫星将补充现有星座在轨容量,助力实现全球陆地每日成像,为农业、林业、环境监测等领域提供持续的地理空间数据支撑。

基本信息
目录编号:
58327
目录名称:
FLOCK 4Q 4
国际标识:
2023-174BZ
轨道中心:
EARTH
卫星名称:
FLOCK 4Q 4
卫星全名:
--
卫星状态:
在轨 (已飞行988 天)
发射日期:
2023-11-11 UTC
国别 :
美国 (US)
星等 :
--
轨道信息
数据来源 国际轨道数据
星历时间: 2026-07-26T13:12:33+0800
16小时前
查看轨道信息
半长轴: 6793.998km
偏心率: 0.0004746
轨道倾角: 97.382°
近地点辐角 40.659°
升交点赤经 295.838°
平近点角 319.501°
近地点: 412.636km
远地点: 419.086km
周期: 92.885分钟
每日圈数: 15.502962
详细信息
使用方式:
暂无
2D轨道图
3D轨道图
轨道高度分析图
轨道倾角分析图
轨道综合分析图
查看轨道综合分析图